Cosmos 1408 - Orbit

View from above orbital plane
View from above orbital plane
View from above satellite
View from above satellite

Ground track
Ground track

The orbit data is extracted from the following two-line orbital elements,

1 13552U 82092A   13140.51305770  .00005544  00000-0  30623-3 0  1238
2 13552 082.5722 317.1128 0024914 210.6105 201.6809 15.13449690670878
Epoch (UTC): 20 May 2013 12:18:48
Eccentricity: 0.0024914
inclination: 82.5722°
perigee height: 508 km
apogee height: 543 km
right ascension of ascending node: 317.1128°
argument of perigee: 210.6105°
revolutions per day: 15.13449690
mean anomaly at epoch: 201.6809°
orbit number at epoch: 67087

The dashed part of the orbit path shows where the satellite is in the earth's shadow,  

Developed and maintained by Chris Peat, Heavens-Above GmbH. Please read the updated FAQ before sending e-mail. Imprint. DLR